C/2008 J6 ( Hill )

Japanese version
Home page
Total 6,336 html files since Dec. 4, 1995
Updated on July 20, 2008

---------------------------------------------------------------------

* Profile

Discovery Date May 14, 2008
Magnitude 15.5 mag
Discoverer R. E. Hill (Catalina Sky Survey)

* Pictures

* Orbital Elements

Epoch 2008 Apr. 4.0 TT = JDT 2454560.5
T 2008 Apr. 10.94131 TT                                 MPC
q   2.0034747            (2000.0)            P               Q
z  -0.0011193      Peri.   10.70219     +0.57977125     +0.52491109
 +/-0.0000501      Node   298.17774     -0.78999908     +0.17496051
e   1.0022424      Incl.   44.98702     -0.19941600     +0.83298090

* Finding Charts

* Magnitudes Graph

        m1 = 11.0 + 5 log d + 10.0 log r

---------------------------------------------------------------------

The orbital elements are published on M.P.E.C. 2008-N42.
The charts are made with StellaNavigator Ver.8 (AstroArts).
The magnitudes graphs are made with Comet for Windows.

---------------------------------------------------------------------

Copyright(C) 1995-2008 Seiichi Yoshida (comet@aerith.net). All rights reserved.